| time (UTC) | temp F | wind direction | speed knots | gust knots | rain 1hr in | rain 24hr in | rain mn in | humidity % | barometer mb |
| 20260508004500 | 55 | 301 | 0.0 | 0.0 | 0.00 | 0.01 | 0.01 | 38 | 1006.5 |
| 20260508003957 | 55 | 301 | 0.0 | 0.0 | 0.00 | 0.01 | 0.01 | 37 | 1006.6 |
| 20260508003454 | 55 | 301 | 0.0 | 0.0 | 0.00 | 0.01 | 0.01 | 36 | 1006.6 |
| 20260508002951 | 56 | 301 | 0.0 | 0.0 | 0.00 | 0.01 | 0.01 | 35 | 1006.6 |
| 20260508002447 | 56 | 301 | 0.0 | 0.0 | 0.00 | 0.01 | 0.01 | 35 | 1006.4 |
| 20260508001943 | 56 | 284 | 0.0 | 0.0 | 0.00 | 0.01 | 0.01 | 35 | 1006.4 |
| 20260508001440 | 56 | 36 | 0.0 | 0.0 | 0.00 | 0.01 | 0.01 | 35 | 1006.3 |
| 20260508000937 | 56 | 294 | 0.0 | 0.0 | 0.00 | 0.01 | 0.01 | 35 | 1006.2 |
| 20260508000434 | 57 | 294 | 0.0 | 0.0 | 0.00 | 0.01 | 0.01 | 35 | 1006.2 |
| 20260507235930 | 57 | 278 | 0.0 | 0.0 | 0.00 | 0.01 | 0.01 | 34 | 1006.3 |
| 20260507235427 | 57 | 278 | 0.9 | 0.9 | 0.00 | 0.01 | 0.01 | 33 | 1006.2 |
| 20260507234924 | 58 | 285 | 1.7 | 2.6 | 0.00 | 0.01 | 0.01 | 32 | 1006.1 |
| 20260507234420 | 58 | 291 | 0.0 | 0.0 | 0.00 | 0.01 | 0.01 | 32 | 1005.9 |
| 20260507233917 | 58 | 265 | 0.9 | 1.7 | 0.00 | 0.01 | 0.01 | 32 | 1005.9 |
| 20260507233414 | 58 | 295 | 0.0 | 1.7 | 0.00 | 0.01 | 0.01 | 31 | 1005.9 |
| 20260507232913 | 59 | 283 | 0.0 | 1.7 | 0.00 | 0.01 | 0.01 | 32 | 1005.9 |
| 20260507232409 | 59 | 283 | 0.0 | 1.7 | 0.00 | 0.01 | 0.01 | 31 | 1005.8 |
| 20260507231906 | 59 | 313 | 0.9 | 1.7 | 0.00 | 0.01 | 0.01 | 31 | 1005.8 |
| 20260507231402 | 59 | 301 | 1.7 | 2.6 | 0.00 | 0.01 | 0.01 | 30 | 1005.7 |
| 20260507230859 | 60 | 314 | 0.0 | 2.6 | 0.00 | 0.01 | 0.01 | 30 | 1005.7 |
| 20260507230356 | 60 | 316 | 0.9 | 0.9 | 0.00 | 0.01 | 0.01 | 30 | 1005.7 |
| 20260507225856 | 60 | 316 | 0.9 | 1.7 | 0.00 | 0.01 | 0.01 | 30 | 1005.7 |
| 20260507225353 | 61 | 296 | 1.7 | 1.7 | 0.00 | 0.01 | 0.01 | 27 | 1005.5 |
| 20260507224848 | 61 | 279 | 1.7 | 1.7 | 0.00 | 0.01 | 0.01 | 29 | 1005.5 |
| 20260507224345 | 61 | 277 | 1.7 | 1.7 | 0.00 | 0.01 | 0.01 | 28 | 1005.5 |
| 20260507223841 | 61 | 294 | 1.7 | 2.6 | 0.00 | 0.01 | 0.01 | 28 | 1005.4 |
| 20260507223338 | 61 | 264 | 0.0 | 1.7 | 0.00 | 0.01 | 0.01 | 28 | 1005.3 |
| 20260507222835 | 61 | 303 | 0.0 | 0.9 | 0.00 | 0.01 | 0.01 | 29 | 1005.3 |
| 20260507222331 | 61 | 333 | 0.9 | 1.7 | 0.00 | 0.01 | 0.01 | 30 | 1005.4 |
| 20260507221828 | 62 | 289 | 1.7 | 1.7 | 0.00 | 0.01 | 0.01 | 28 | 1005.3 |
| 20260507221325 | 62 | 272 | 1.7 | 2.6 | 0.00 | 0.01 | 0.01 | 28 | 1005.4 |
| 20260507220821 | 62 | 5 | 0.0 | 0.9 | 0.00 | 0.01 | 0.01 | 28 | 1005.2 |
| 20260507220320 | 62 | 12 | 0.9 | 0.9 | 0.00 | 0.01 | 0.01 | 28 | 1005.2 |
| 20260507215815 | 61 | 302 | 1.7 | 2.6 | 0.00 | 0.01 | 0.01 | 29 | 1005.3 |
| 20260507215313 | 62 | 288 | 0.9 | 3.5 | 0.00 | 0.01 | 0.01 | 28 | 1005.1 |
| 20260507214810 | 63 | 295 | 1.7 | 2.6 | 0.00 | 0.01 | 0.01 | 27 | 1005.1 |
| 20260507214308 | 63 | 295 | 0.9 | 2.6 | 0.00 | 0.01 | 0.01 | 28 | 1005.1 |
| 20260507213808 | 63 | 328 | 0.0 | 0.0 | 0.00 | 0.01 | 0.01 | 27 | 1005.0 |
| 20260507213305 | 63 | 256 | 2.6 | 5.2 | 0.00 | 0.01 | 0.01 | 27 | 1005.0 |
| 20260507212802 | 63 | 325 | 0.0 | 2.6 | 0.00 | 0.01 | 0.01 | 27 | 1005.0 |
| 20260507212258 | 64 | 337 | 1.7 | 7.0 | 0.00 | 0.01 | 0.01 | 26 | 1004.8 |
| 20260507211754 | 64 | 254 | 1.7 | 3.5 | 0.00 | 0.01 | 0.01 | 27 | 1004.9 |
| 20260507211251 | 64 | 263 | 1.7 | 6.1 | 0.00 | 0.01 | 0.01 | 26 | 1004.9 |
| 20260507210748 | 64 | 334 | 0.9 | 1.7 | 0.00 | 0.01 | 0.01 | 27 | 1004.9 |
| 20260507210245 | 65 | 228 | 2.6 | 7.8 | 0.00 | 0.01 | 0.01 | 26 | 1004.8 |
| 20260507205741 | 65 | 292 | 2.6 | 3.5 | 0.00 | 0.01 | 0.01 | 29 | 1004.8 |
| 20260507205238 | 66 | 303 | 1.7 | 3.5 | 0.00 | 0.01 | 0.01 | 26 | 1004.9 |
| 20260507204734 | 67 | 317 | 0.9 | 0.9 | 0.00 | 0.01 | 0.01 | 28 | 1004.8 |
| 20260507204233 | 68 | 351 | 0.9 | 2.6 | 0.00 | 0.01 | 0.01 | 26 | 1004.8 |
| 20260507203730 | 67 | 265 | 0.0 | 0.9 | 0.00 | 0.01 | 0.01 | 26 | 1004.7 |
| 20260507203227 | 67 | 272 | 0.9 | 5.2 | 0.00 | 0.01 | 0.01 | 27 | 1004.8 |
| 20260507202723 | 67 | 291 | 1.7 | 2.6 | 0.00 | 0.01 | 0.01 | 26 | 1004.8 |
| 20260507202219 | 67 | 326 | 0.9 | 1.7 | 0.00 | 0.01 | 0.01 | 25 | 1004.8 |
| 20260507201714 | 67 | 300 | 0.9 | 2.6 | 0.00 | 0.01 | 0.01 | 27 | 1004.8 |
| 20260507201212 | 68 | 2 | 0.0 | 1.7 | 0.00 | 0.01 | 0.01 | 25 | 1004.7 |
| 20260507200708 | 67 | 268 | 0.0 | 1.7 | 0.00 | 0.01 | 0.01 | 25 | 1004.8 |
| 20260507200204 | 66 | 331 | 0.9 | 2.6 | 0.00 | 0.01 | 0.01 | 25 | 1004.8 |
| 20260507195700 | 66 | 276 | 3.5 | 6.1 | 0.00 | 0.01 | 0.01 | 25 | 1005.0 |
| 20260507195157 | 67 | 307 | 0.9 | 2.6 | 0.00 | 0.01 | 0.01 | 25 | 1004.9 |
| 20260507194654 | 66 | 280 | 0.0 | 2.6 | 0.00 | 0.01 | 0.01 | 24 | 1005.2 |
| 20260507194150 | 66 | 30 | 0.9 | 1.7 | 0.00 | 0.01 | 0.01 | 26 | 1005.0 |
| 20260507193647 | 66 | 300 | 0.9 | 2.6 | 0.00 | 0.01 | 0.01 | 25 | 1005.2 |
| 20260507193144 | 68 | 36 | 2.6 | 3.5 | 0.00 | 0.01 | 0.01 | 24 | 1005.1 |
| 20260507192640 | 68 | 297 | 1.7 | 2.6 | 0.00 | 0.01 | 0.01 | 26 | 1005.1 |
| 20260507192138 | 67 | 289 | 2.6 | 2.6 | 0.00 | 0.01 | 0.01 | 24 | 1005.1 |
| 20260507191633 | 66 | 313 | 0.0 | 2.6 | 0.00 | 0.01 | 0.01 | 27 | 1005.3 |
| 20260507191130 | 66 | 66 | 0.9 | 1.7 | 0.00 | 0.01 | 0.01 | 25 | 1005.2 |
| 20260507190627 | 64 | 121 | 1.7 | 3.5 | 0.00 | 0.01 | 0.01 | 25 | 1005.3 |
| 20260507190126 | 65 | 43 | 0.0 | 5.2 | 0.00 | 0.01 | 0.01 | 26 | 1005.3 |
| 20260507185624 | 65 | 279 | 2.6 | 3.5 | 0.00 | 0.01 | 0.01 | 26 | 1005.4 |
| 20260507185120 | 66 | 277 | 2.6 | 5.2 | 0.00 | 0.01 | 0.01 | 25 | 1005.6 |
| 20260507184618 | 65 | 299 | 1.7 | 6.1 | 0.00 | 0.01 | 0.01 | 25 | 1005.5 |
| 20260507184116 | 66 | 39 | 1.7 | 3.5 | 0.00 | 0.01 | 0.01 | 26 | 1005.5 |
| 20260507183612 | 65 | 304 | 1.7 | 2.6 | 0.00 | 0.01 | 0.01 | 26 | 1005.5 |
| 20260507183109 | 65 | 28 | 1.7 | 3.5 | 0.00 | 0.01 | 0.01 | 24 | 1005.4 |
| 20260507182605 | 64 | 261 | 2.6 | 3.5 | 0.00 | 0.01 | 0.01 | 26 | 1005.6 |
| 20260507182101 | 64 | 267 | 0.0 | 2.6 | 0.00 | 0.01 | 0.01 | 25 | 1005.4 |
| 20260507181558 | 65 | 280 | 0.0 | 2.6 | 0.00 | 0.01 | 0.01 | 26 | 1005.7 |
| 20260507181054 | 64 | 289 | 1.7 | 2.6 | 0.00 | 0.01 | 0.01 | 31 | 1005.7 |
| 20260507180551 | 64 | 281 | 3.5 | 3.5 | 0.00 | 0.01 | 0.01 | 32 | 1005.8 |
| 20260507180048 | 64 | 285 | 2.6 | 5.2 | 0.00 | 0.01 | 0.01 | 27 | 1005.8 |
| 20260507175544 | 64 | 312 | 2.6 | 3.5 | 0.00 | 0.01 | 0.01 | 27 | 1005.8 |
| 20260507175042 | 64 | 294 | 1.7 | 2.6 | 0.00 | 0.01 | 0.01 | 28 | 1005.9 |
| 20260507174538 | 64 | 294 | 1.7 | 3.5 | 0.00 | 0.01 | 0.01 | 31 | 1005.9 |
| 20260507174037 | 64 | 296 | 0.0 | 0.9 | 0.00 | 0.01 | 0.01 | 31 | 1005.7 |
| 20260507173533 | 63 | 292 | 0.9 | 2.6 | 0.00 | 0.01 | 0.01 | 32 | 1005.6 |
| 20260507173031 | 63 | 2 | 0.0 | 0.9 | 0.00 | 0.01 | 0.01 | 33 | 1005.7 |
| 20260507172526 | 62 | 330 | 0.0 | 0.9 | 0.00 | 0.01 | 0.01 | 32 | 1005.7 |
| 20260507172023 | 62 | 298 | 1.7 | 6.1 | 0.00 | 0.01 | 0.01 | 33 | 1006.0 |
| 20260507171519 | 62 | 294 | 4.3 | 6.1 | 0.00 | 0.01 | 0.01 | 33 | 1005.8 |
| 20260507171016 | 62 | 329 | 0.0 | 2.6 | 0.00 | 0.01 | 0.01 | 36 | 1005.9 |
| 20260507170513 | 62 | 15 | 1.7 | 2.6 | 0.00 | 0.01 | 0.01 | 37 | 1006.0 |
| 20260507170010 | 62 | 290 | 1.7 | 3.5 | 0.00 | 0.01 | 0.01 | 37 | 1006.0 |
| 20260507165505 | 63 | 11 | 1.7 | 2.6 | 0.00 | 0.01 | 0.01 | 38 | 1006.1 |
| 20260507165002 | 62 | 305 | 0.0 | 2.6 | 0.00 | 0.01 | 0.01 | 41 | 1006.3 |
| 20260507164458 | 62 | 290 | 2.6 | 3.5 | 0.00 | 0.01 | 0.01 | 44 | 1006.3 |
| 20260507163955 | 62 | 305 | 0.0 | 0.0 | 0.00 | 0.01 | 0.01 | 42 | 1006.3 |
| 20260507163453 | 61 | 286 | 0.9 | 2.6 | 0.00 | 0.01 | 0.01 | 46 | 1006.1 |
| 20260507162950 | 60 | 306 | 0.9 | 2.6 | 0.00 | 0.01 | 0.01 | 47 | 1006.4 |
| 20260507162445 | 60 | 309 | 0.9 | 3.5 | 0.00 | 0.01 | 0.01 | 43 | 1006.3 |
| 20260507161942 | 61 | 299 | 1.7 | 2.6 | 0.00 | 0.01 | 0.01 | 44 | 1006.3 |
| 20260507161438 | 60 | 305 | 0.9 | 3.5 | 0.00 | 0.01 | 0.01 | 46 | 1006.5 |
| 20260507160935 | 61 | 17 | 0.9 | 3.5 | 0.00 | 0.01 | 0.01 | 45 | 1006.5 |
| 20260507160431 | 61 | 301 | 0.0 | 0.9 | 0.00 | 0.01 | 0.01 | 48 | 1006.3 |
| 20260507155927 | 60 | 262 | 0.0 | 1.7 | 0.00 | 0.01 | 0.01 | 45 | 1006.6 |
| 20260507155423 | 59 | 305 | 0.0 | 0.0 | 0.00 | 0.01 | 0.01 | 53 | 1006.7 |
| 20260507154921 | 59 | 348 | 0.9 | 1.7 | 0.00 | 0.01 | 0.01 | 51 | 1006.6 |
| 20260507154417 | 60 | 296 | 1.7 | 2.6 | 0.00 | 0.01 | 0.01 | 49 | 1006.6 |
| 20260507153915 | 60 | 309 | 1.7 | 1.7 | 0.00 | 0.01 | 0.01 | 50 | 1006.4 |
| 20260507153411 | 59 | 285 | 0.9 | 3.5 | 0.00 | 0.01 | 0.01 | 50 | 1006.7 |
| 20260507152907 | 59 | 242 | 1.7 | 1.7 | 0.00 | 0.01 | 0.01 | 52 | 1006.7 |
| 20260507152404 | 59 | 22 | 0.0 | 2.6 | 0.00 | 0.01 | 0.01 | 50 | 1006.7 |
| 20260507151900 | 59 | 346 | 0.0 | 1.7 | 0.00 | 0.01 | 0.01 | 53 | 1006.9 |
| 20260507151356 | 58 | 284 | 2.6 | 2.6 | 0.00 | 0.01 | 0.01 | 52 | 1006.9 |
| 20260507150853 | 58 | 288 | 1.7 | 2.6 | 0.00 | 0.01 | 0.01 | 51 | 1007.0 |
| 20260507150350 | 58 | 282 | 0.9 | 0.9 | 0.00 | 0.01 | 0.01 | 52 | 1007.1 |
| 20260507145846 | 58 | 294 | 0.0 | 2.6 | 0.00 | 0.01 | 0.01 | 52 | 1007.3 |
| 20260507145342 | 58 | 298 | 1.7 | 1.7 | 0.00 | 0.01 | 0.01 | 51 | 1007.2 |
| 20260507144839 | 59 | 296 | 0.9 | 2.6 | 0.00 | 0.01 | 0.01 | 49 | 1007.4 |
| 20260507144337 | 59 | 325 | 1.7 | 2.6 | 0.00 | 0.01 | 0.01 | 49 | 1007.4 |
| 20260507143834 | 59 | 292 | 0.9 | 0.9 | 0.00 | 0.01 | 0.01 | 49 | 1007.5 |
| 20260507143331 | 59 | 299 | 1.7 | 1.7 | 0.00 | 0.01 | 0.01 | 48 | 1007.4 |
| 20260507142827 | 59 | 47 | 0.9 | 2.6 | 0.00 | 0.01 | 0.01 | 48 | 1007.3 |
| 20260507142323 | 59 | 313 | 0.9 | 1.7 | 0.00 | 0.01 | 0.01 | 49 | 1007.3 |
| 20260507141820 | 59 | 326 | 0.9 | 1.7 | 0.00 | 0.01 | 0.01 | 52 | 1007.4 |
| 20260507141317 | 58 | 296 | 1.7 | 2.6 | 0.00 | 0.01 | 0.01 | 47 | 1007.4 |
| 20260507140813 | 57 | 307 | 1.7 | 2.6 | 0.00 | 0.01 | 0.01 | 47 | 1007.3 |
| 20260507140310 | 57 | 312 | 0.9 | 2.6 | 0.00 | 0.01 | 0.01 | 50 | 1007.3 |
| 20260507135808 | 56 | 341 | 0.0 | 1.7 | 0.00 | 0.01 | 0.01 | 49 | 1007.4 |
| 20260507135306 | 56 | 289 | 0.9 | 2.6 | 0.00 | 0.01 | 0.01 | 50 | 1007.3 |
| 20260507134801 | 56 | 290 | 0.0 | 2.6 | 0.00 | 0.01 | 0.01 | 52 | 1007.2 |
| 20260507134258 | 56 | 296 | 2.6 | 3.5 | 0.00 | 0.01 | 0.01 | 52 | 1007.1 |
| 20260507133753 | 56 | 350 | 0.9 | 1.7 | 0.00 | 0.01 | 0.01 | 50 | 1007.3 |
| 20260507133250 | 55 | 23 | 0.9 | 2.6 | 0.00 | 0.01 | 0.01 | 53 | 1007.2 |
| 20260507132748 | 55 | 321 | 0.9 | 2.6 | 0.00 | 0.01 | 0.01 | 54 | 1007.5 |
| 20260507132244 | 55 | 290 | 0.0 | 1.7 | 0.00 | 0.01 | 0.01 | 57 | 1007.5 |
| 20260507131741 | 55 | 305 | 0.0 | 0.9 | 0.00 | 0.01 | 0.01 | 57 | 1007.6 |
| 20260507131238 | 55 | 287 | 0.9 | 2.6 | 0.00 | 0.01 | 0.01 | 57 | 1007.4 |
| 20260507130735 | 55 | 279 | 0.9 | 2.6 | 0.00 | 0.01 | 0.01 | 60 | 1007.5 |
| 20260507130233 | 54 | 298 | 0.9 | 1.7 | 0.00 | 0.01 | 0.01 | 62 | 1007.7 |
| 20260507125731 | 54 | 317 | 0.9 | 1.7 | 0.00 | 0.01 | 0.01 | 62 | 1007.8 |
| 20260507125228 | 54 | 9 | 0.9 | 2.6 | 0.00 | 0.01 | 0.01 | 67 | 1007.7 |
| 20260507124725 | 53 | 185 | 0.0 | 0.0 | 0.00 | 0.01 | 0.01 | 68 | 1007.8 |
| 20260507124222 | 53 | 318 | 0.0 | 6.1 | 0.00 | 0.01 | 0.01 | 70 | 1007.6 |
| 20260507123720 | 52 | 292 | 0.9 | 2.6 | 0.00 | 0.01 | 0.01 | 70 | 1007.7 |
| 20260507123217 | 52 | 295 | 0.0 | 1.7 | 0.00 | 0.01 | 0.01 | 71 | 1007.7 |
| 20260507122712 | 52 | 287 | 0.9 | 2.6 | 0.00 | 0.01 | 0.01 | 71 | 1007.6 |
| 20260507122209 | 52 | 272 | 2.6 | 2.6 | 0.00 | 0.01 | 0.01 | 74 | 1007.8 |
| 20260507121704 | 51 | 281 | 1.7 | 1.7 | 0.00 | 0.01 | 0.01 | 75 | 1007.7 |
| 20260507121200 | 51 | 294 | 0.0 | 2.6 | 0.00 | 0.01 | 0.01 | 74 | 1007.7 |
| 20260507120657 | 51 | 295 | 1.7 | 1.7 | 0.00 | 0.01 | 0.01 | 76 | 1007.5 |
| 20260507120154 | 51 | 258 | 1.7 | 1.7 | 0.00 | 0.01 | 0.01 | 77 | 1007.7 |
| 20260507115650 | 51 | 283 | 0.9 | 2.6 | 0.00 | 0.01 | 0.01 | 76 | 1007.7 |
| 20260507115145 | 50 | 282 | 0.9 | 0.9 | 0.00 | 0.01 | 0.01 | 79 | 1007.8 |
| 20260507114642 | 50 | 296 | 0.0 | 1.7 | 0.00 | 0.01 | 0.01 | 78 | 1007.6 |
| 20260507114139 | 50 | 315 | 0.0 | 0.0 | 0.00 | 0.01 | 0.01 | 80 | 1007.5 |
| 20260507113637 | 50 | 320 | 0.0 | 0.0 | 0.00 | 0.01 | 0.01 | 81 | 1007.7 |
| 20260507113133 | 50 | 288 | 0.0 | 0.0 | 0.00 | 0.01 | 0.01 | 81 | 1007.7 |
| 20260507112631 | 50 | 324 | 0.0 | 0.0 | 0.00 | 0.01 | 0.01 | 82 | 1007.8 |
| 20260507112127 | 50 | 334 | 0.0 | 0.0 | 0.00 | 0.01 | 0.01 | 82 | 1007.7 |
| 20260507111625 | 50 | 305 | 0.0 | 0.0 | 0.00 | 0.01 | 0.01 | 84 | 1007.5 |
| 20260507111122 | 49 | 305 | 0.0 | 0.0 | 0.00 | 0.01 | 0.01 | 83 | 1007.4 |
| 20260507110618 | 49 | 305 | 1.7 | 1.7 | 0.00 | 0.01 | 0.01 | 84 | 1007.3 |
| 20260507110115 | 49 | 330 | 0.0 | 0.9 | 0.00 | 0.01 | 0.01 | 85 | 1007.6 |
| 20260507105612 | 49 | 330 | 0.0 | 0.0 | 0.00 | 0.01 | 0.01 | 85 | 1007.6 |
| 20260507105107 | 49 | 330 | 0.0 | 0.0 | 0.00 | 0.01 | 0.01 | 86 | 1007.6 |
| 20260507104606 | 49 | 330 | 0.0 | 0.0 | 0.00 | 0.01 | 0.01 | 85 | 1007.8 |
| 20260507104101 | 49 | 330 | 0.0 | 0.0 | 0.00 | 0.01 | 0.01 | 85 | 1007.7 |
| 20260507103557 | 49 | 330 | 0.0 | 0.0 | 0.00 | 0.01 | 0.01 | 85 | 1007.1 |
| 20260507103054 | 49 | 331 | 0.0 | 0.9 | 0.00 | 0.01 | 0.01 | 85 | 1006.9 |
| 20260507102550 | 49 | 331 | 0.0 | 0.0 | 0.00 | 0.01 | 0.01 | 86 | 1006.9 |
| 20260507102047 | 49 | 330 | 0.9 | 0.9 | 0.00 | 0.01 | 0.01 | 86 | 1006.8 |
| 20260507101542 | 49 | 331 | 0.0 | 0.0 | 0.00 | 0.01 | 0.01 | 87 | 1006.8 |
| 20260507101039 | 49 | 287 | 0.0 | 0.0 | 0.00 | 0.01 | 0.01 | 87 | 1007.0 |
| 20260507100536 | 49 | 285 | 0.0 | 0.0 | 0.00 | 0.01 | 0.01 | 87 | 1007.1 |
| 20260507100034 | 49 | 282 | 0.0 | 0.0 | 0.00 | 0.01 | 0.01 | 87 | 1006.8 |
| 20260507095532 | 49 | 277 | 0.0 | 0.0 | 0.00 | 0.01 | 0.01 | 88 | 1006.5 |
| 20260507095028 | 49 | 286 | 0.0 | 0.0 | 0.00 | 0.01 | 0.01 | 88 | 1006.7 |
| 20260507094525 | 49 | 284 | 0.0 | 1.7 | 0.00 | 0.01 | 0.01 | 87 | 1006.8 |
| 20260507094022 | 49 | 336 | 0.0 | 0.9 | 0.00 | 0.01 | 0.01 | 88 | 1007.0 |
| 20260507093519 | 49 | 336 | 0.0 | 0.0 | 0.00 | 0.01 | 0.01 | 87 | 1007.2 |
| 20260507093018 | 49 | 336 | 0.0 | 0.9 | 0.00 | 0.01 | 0.01 | 86 | 1007.2 |
| 20260507092514 | 50 | 336 | 0.0 | 0.9 | 0.00 | 0.01 | 0.01 | 85 | 1006.9 |
| 20260507092011 | 50 | 314 | 0.0 | 0.0 | 0.00 | 0.01 | 0.01 | 86 | 1007.0 |
| 20260507091507 | 50 | 299 | 0.0 | 0.0 | 0.00 | 0.01 | 0.01 | 86 | 1007.0 |
| 20260507091003 | 50 | 298 | 0.0 | 0.9 | 0.00 | 0.01 | 0.01 | 86 | 1007.3 |
| 20260507090459 | 50 | 298 | 0.0 | 0.9 | 0.00 | 0.01 | 0.01 | 86 | 1007.3 |
| 20260507085956 | 50 | 298 | 0.0 | 0.9 | 0.00 | 0.01 | 0.01 | 87 | 1007.2 |
| 20260507085453 | 50 | 309 | 0.0 | 0.0 | 0.00 | 0.01 | 0.01 | 88 | 1007.0 |
| 20260507084950 | 51 | 309 | 0.0 | 0.0 | 0.00 | 0.01 | 0.01 | 88 | 1007.2 |
| 20260507084447 | 51 | 309 | 0.0 | 0.9 | 0.00 | 0.01 | 0.01 | 88 | 1006.8 |
| 20260507083944 | 51 | 307 | 0.0 | 0.9 | 0.00 | 0.01 | 0.01 | 89 | 1006.7 |
| 20260507083440 | 51 | 311 | 0.0 | 0.0 | 0.00 | 0.01 | 0.01 | 90 | 1007.0 |
| 20260507082936 | 51 | 311 | 0.9 | 0.9 | 0.00 | 0.01 | 0.01 | 89 | 1006.9 |
| 20260507082432 | 51 | 318 | 0.0 | 0.0 | 0.00 | 0.01 | 0.01 | 90 | 1006.6 |
| 20260507081929 | 51 | 318 | 0.0 | 0.0 | 0.00 | 0.01 | 0.01 | 90 | 1006.5 |
| 20260507081426 | 51 | 318 | 0.0 | 0.0 | 0.00 | 0.01 | 0.01 | 90 | 1006.3 |
| 20260507080923 | 51 | 307 | 0.0 | 0.0 | 0.00 | 0.01 | 0.01 | 90 | 1006.4 |
| 20260507080419 | 52 | 307 | 0.0 | 0.0 | 0.05 | 0.01 | 0.01 | 90 | 1006.4 |
| 20260507075914 | 52 | 309 | 0.0 | 0.0 | 0.05 | 0.01 | 0.01 | 89 | 1006.8 |
| 20260507075411 | 52 | 309 | 0.0 | 0.9 | 0.00 | 0.00 | 0.00 | 88 | 1007.0 |
| 20260507074907 | 52 | 308 | 0.0 | 1.7 | 0.00 | 0.00 | 0.00 | 87 | 1006.6 |
| 20260507074404 | 53 | 333 | 0.0 | 0.0 | 0.00 | 0.00 | 0.00 | 85 | 1006.4 |
| 20260507073902 | 53 | 300 | 0.0 | 0.9 | 0.00 | 0.00 | 0.00 | 85 | 1007.0 |
| 20260507073358 | 53 | 300 | 0.0 | 0.9 | 0.00 | 0.00 | 0.00 | 84 | 1006.7 |
| 20260507072855 | 53 | 300 | 0.0 | 0.9 | 0.00 | 0.00 | 0.00 | 84 | 1006.2 |
| 20260507072352 | 53 | 300 | 0.0 | 0.9 | 0.00 | 0.00 | 0.00 | 84 | 1006.0 |
| 20260507071850 | 53 | 300 | 0.0 | 0.0 | 0.00 | 0.00 | 0.00 | 83 | 1006.0 |
| 20260507071347 | 53 | 300 | 0.0 | 0.0 | 0.00 | 0.00 | 0.00 | 83 | 1006.2 |
| 20260507070843 | 53 | 300 | 0.0 | 0.0 | 0.00 | 0.00 | 0.00 | 82 | 1006.2 |
| 20260507070341 | 53 | 300 | 0.0 | 0.9 | 0.00 | 0.00 | 0.00 | 82 | 1006.4 |
| 20260507065837 | 53 | 300 | 0.0 | 0.0 | 0.00 | 0.00 | 0.00 | 82 | 1005.9 |
| 20260507065334 | 53 | 300 | 0.0 | 0.0 | 0.00 | 0.00 | 0.00 | 81 | 1005.9 |
| 20260507064831 | 53 | 292 | 0.0 | 0.0 | 0.00 | 0.00 | 0.00 | 81 | 1006.0 |
| 20260507064330 | 53 | 292 | 0.9 | 2.6 | 0.00 | 0.00 | 0.00 | 81 | 1006.1 |
| 20260507063827 | 53 | 355 | 0.9 | 0.9 | 0.00 | 0.00 | 0.00 | 82 | 1006.1 |
| 20260507063324 | 53 | 8 | 0.0 | 0.9 | 0.00 | 0.00 | 0.00 | 82 | 1005.9 |
| 20260507062820 | 53 | 333 | 0.0 | 0.0 | 0.00 | 0.00 | 0.00 | 82 | 1005.9 |
| 20260507062317 | 54 | 294 | 0.0 | 2.6 | 0.00 | 0.00 | 0.00 | 82 | 1006.0 |
| 20260507061816 | 54 | 302 | 2.6 | 2.6 | 0.00 | 0.00 | 0.00 | 83 | 1005.8 |
| 20260507061313 | 54 | 296 | 0.9 | 2.6 | 0.00 | 0.00 | 0.00 | 82 | 1006.0 |
| 20260507060811 | 54 | 318 | 0.0 | 1.7 | 0.00 | 0.00 | 0.00 | 83 | 1006.2 |
| 20260507060308 | 54 | 56 | 0.9 | 2.6 | 0.00 | 0.00 | 0.00 | 84 | 1006.0 |
| 20260507055804 | 55 | 297 | 0.0 | 0.0 | 0.00 | 0.00 | 0.00 | 84 | 1006.0 |
| 20260507055259 | 55 | 261 | 1.7 | 1.7 | 0.00 | 0.00 | 0.00 | 86 | 1006.2 |
| 20260507054756 | 55 | 297 | 0.0 | 0.9 | 0.00 | 0.00 | 0.00 | 87 | 1006.2 |
| 20260507054253 | 55 | 23 | 0.0 | 0.9 | 0.00 | 0.00 | 0.00 | 89 | 1006.2 |
| 20260507053750 | 55 | 317 | 0.9 | 1.7 | 0.00 | 0.00 | 0.00 | 88 | 1006.4 |
| 20260507053248 | 55 | 13 | 0.0 | 0.9 | 0.00 | 0.00 | 0.00 | 88 | 1006.3 |
| 20260507052746 | 55 | 290 | 0.9 | 3.5 | 0.00 | 0.00 | 0.00 | 89 | 1005.9 |
| 20260507052242 | 56 | 297 | 0.9 | 1.7 | 0.00 | 0.00 | 0.00 | 89 | 1006.1 |
| 20260507051741 | 56 | 321 | 1.7 | 1.7 | 0.00 | 0.00 | 0.00 | 89 | 1006.2 |
| 20260507051237 | 56 | 342 | 0.9 | 1.7 | 0.00 | 0.00 | 0.00 | 89 | 1005.9 |
| 20260507050733 | 56 | 289 | 1.7 | 2.6 | 0.00 | 0.00 | 0.00 | 89 | 1005.9 |
| 20260507050231 | 56 | 3 | 0.9 | 0.9 | 0.00 | 0.00 | 0.00 | 89 | 1006.0 |
| 20260507045728 | 56 | 302 | 0.0 | 2.6 | 0.00 | 0.00 | 0.00 | 90 | 1006.2 |
| 20260507045224 | 56 | 292 | 0.0 | 0.0 | 0.00 | 0.00 | 0.00 | 91 | 1006.2 |
| 20260507044721 | 57 | 297 | 0.0 | 0.0 | 0.00 | 0.00 | 0.00 | 91 | 1006.3 |
| 20260507044217 | 57 | 292 | 0.9 | 1.7 | 0.00 | 0.00 | 0.00 | 91 | 1006.2 |
| 20260507043714 | 57 | 290 | 0.9 | 2.6 | 0.00 | 0.00 | 0.00 | 91 | 1005.9 |
| 20260507043211 | 57 | 298 | 0.9 | 1.7 | 0.00 | 0.00 | 0.00 | 92 | 1005.8 |
| 20260507042707 | 58 | 340 | 0.0 | 0.9 | 0.00 | 0.00 | 0.00 | 92 | 1006.1 |
| 20260507042202 | 58 | 46 | 0.0 | 1.7 | 0.00 | 0.00 | 0.00 | 93 | 1006.0 |
| 20260507041700 | 59 | 306 | 0.0 | 0.0 | 0.00 | 0.00 | 0.00 | 94 | 1005.9 |
| 20260507041156 | 59 | 299 | 0.9 | 1.7 | 0.00 | 0.00 | 0.00 | 95 | 1006.0 |
| 20260507040653 | 59 | 258 | 0.0 | 0.0 | 0.00 | 0.00 | 0.00 | 95 | 1006.0 |
| 20260507040149 | 59 | 258 | 0.0 | 0.0 | 0.00 | 0.00 | 0.00 | 95 | 1006.1 |
| 20260507035645 | 59 | 258 | 0.0 | 0.0 | 0.00 | 0.06 | 0.06 | 95 | 1005.9 |
| 20260507035141 | 59 | 289 | 0.0 | 0.0 | 0.00 | 0.06 | 0.06 | 95 | 1005.9 |
| 20260507034638 | 59 | 288 | 0.0 | 0.0 | 0.00 | 0.06 | 0.06 | 95 | 1005.6 |
| 20260507034136 | 59 | 288 | 0.0 | 0.9 | 0.00 | 0.06 | 0.06 | 95 | 1005.6 |
| 20260507033634 | 59 | 245 | 0.0 | 0.0 | 0.00 | 0.06 | 0.06 | 95 | 1005.7 |
| 20260507033131 | 59 | 310 | 0.9 | 1.7 | 0.00 | 0.06 | 0.06 | 94 | 1005.8 |
| 20260507032629 | 59 | 312 | 0.0 | 0.9 | 0.07 | 0.06 | 0.06 | 94 | 1005.8 |
| 20260507032124 | 59 | 313 | 0.0 | 0.0 | 0.00 | 0.05 | 0.05 | 94 | 1005.8 |
| 20260507031621 | 59 | 267 | 0.9 | 0.9 | 0.00 | 0.05 | 0.05 | 93 | 1005.5 |
| 20260507031118 | 60 | 276 | 0.0 | 0.9 | 0.00 | 0.05 | 0.05 | 93 | 1005.4 |
| 20260507030615 | 60 | 277 | 0.0 | 0.0 | 0.00 | 0.05 | 0.05 | 93 | 1005.4 |
| 20260507030113 | 60 | 277 | 0.0 | 0.0 | 0.00 | 0.05 | 0.05 | 93 | 1005.1 |
| 20260507025609 | 60 | 277 | 0.0 | 0.0 | 0.00 | 0.05 | 0.05 | 93 | 1005.1 |
| 20260507025106 | 60 | 277 | 0.0 | 0.0 | 0.00 | 0.05 | 0.05 | 93 | 1005.3 |
| 20260507024604 | 60 | 297 | 0.0 | 0.9 | 0.00 | 0.05 | 0.05 | 93 | 1005.3 |
| 20260507024101 | 60 | 281 | 1.7 | 1.7 | 0.00 | 0.05 | 0.05 | 93 | 1005.3 |
| 20260507023556 | 59 | 275 | 0.0 | 2.6 | 0.00 | 0.05 | 0.05 | 93 | 1005.4 |
| 20260507023054 | 59 | 283 | 0.0 | 0.9 | 0.00 | 0.05 | 0.05 | 93 | 1005.4 |
| 20260507022551 | 59 | 152 | 0.0 | 0.9 | 0.00 | 0.05 | 0.05 | 93 | 1005.5 |
| 20260507022046 | 59 | 152 | 0.0 | 0.0 | 0.00 | 0.05 | 0.05 | 93 | 1005.4 |
| 20260507021543 | 59 | 159 | 0.9 | 1.7 | 0.00 | 0.05 | 0.05 | 93 | 1005.3 |
| 20260507021039 | 59 | 303 | 1.7 | 3.5 | 0.00 | 0.05 | 0.05 | 93 | 1005.5 |
| 20260507020537 | 59 | 203 | 0.9 | 0.9 | 0.00 | 0.05 | 0.05 | 93 | 1005.5 |
| 20260507020033 | 59 | 218 | 0.9 | 0.9 | 0.00 | 0.05 | 0.05 | 93 | 1005.3 |
| 20260507015532 | 59 | 199 | 0.9 | 1.7 | 0.00 | 0.05 | 0.05 | 93 | 1005.3 |
| 20260507015029 | 59 | 199 | 0.0 | 1.7 | 0.00 | 0.05 | 0.05 | 93 | 1005.4 |
| 20260507014525 | 59 | 307 | 0.0 | 1.7 | 0.00 | 0.05 | 0.05 | 93 | 1005.4 |
| 20260507014021 | 59 | 128 | 0.9 | 5.2 | 0.00 | 0.05 | 0.05 | 93 | 1005.6 |
| 20260507013518 | 59 | 174 | 0.0 | 0.9 | 0.00 | 0.05 | 0.05 | 93 | 1005.3 |
| 20260507013015 | 59 | 174 | 0.9 | 0.9 | 0.00 | 0.05 | 0.05 | 93 | 1005.6 |
| 20260507012512 | 59 | 271 | 0.0 | 0.0 | 0.00 | 0.05 | 0.05 | 93 | 1005.5 |
| 20260507012008 | 59 | 147 | 1.7 | 3.5 | 0.00 | 0.05 | 0.05 | 93 | 1005.5 |
| 20260507011506 | 59 | 133 | 0.9 | 0.9 | 0.00 | 0.05 | 0.05 | 93 | 1005.5 |
| 20260507011001 | 59 | 188 | 0.9 | 0.9 | 0.00 | 0.05 | 0.05 | 93 | 1005.5 |
| 20260507010456 | 59 | 178 | 0.9 | 2.6 | 0.00 | 0.05 | 0.05 | 93 | 1005.6 |
| 20260507005953 | 59 | 176 | 0.0 | 0.9 | 0.00 | 0.05 | 0.05 | 93 | 1005.5 |
| 20260507005451 | 59 | 172 | 0.9 | 0.9 | 0.00 | 0.05 | 0.05 | 93 | 1005.8 |
| 20260507004947 | 59 | 144 | 0.0 | 1.7 | 0.00 | 0.05 | 0.05 | 93 | 1005.7 |